Orbital Elements at Epoch 2459000.5 (2020-May-31.0) TDB
Reference: JPL 16 (heliocentric ecliptic J2000)
Element | Value | Uncertainty (1-sigma) | Units |
e | .02090955887130524 | 4.2356e-08 | |
a | 2.784930987031974 | 2.6496e-08 | au |
q | 2.726699308606106 | 1.1097e-07 | au |
i | 5.079942660511904 | 4.4789e-06 | deg |
node | 46.67716060100788 | 5.4127e-05 | deg |
peri | 205.9705083876783 | 0.00014305 | deg |
M | 70.57727926040339 | 0.00013047 | deg |
tp | 2458667.700630626182 (2019-Jul-03.20063063) | 0.00061615 | TDB |
period | 1697.540259840978 4.65 | 2.4226e-05 6.633e-08 | d yr |
n | .2120715534804012 | 3.0265e-09 | deg/d |
Q | 2.843162665457841 | 2.705e-08 | au |
|
| | Orbit Determination Parameters
Additional Information
|